Terug naar catalogus

DELTA 1 DEB

ActiefSSO
NORAD 12530·DEBRIS·🇺🇸 United States

Gelanceerd Jul 29, 1976 vanaf Vandenberg Space Force Base

Loading…

Volgende Passages (komende 24 uur)

TLE

VersSource: Space-Track

Epoch: Sep 14, 2026, 10:44 UTC

1 12530U 76077DK  26257.44749307 -.00000050  00000-0 -38590-4 0  9994
2 12530 102.5742 246.9241 0126491 160.5302 354.0831 12.27058169 94033

Volg DELTA 1 DEB in realtime met AllMySat

Download on the App Store